Location: Unspecified
(47.4992°N, 121.7766°W)
Time: 16:36:31
(UTC-07:00)

ISS - Pass Details

Date: 24 April 2024
Orbit: 410 x 414 km, 51.6° (Epoch: 18 May)

Event Time Altitude Azimuth Distance (km) Brightness Sun altitude
Exits shadow 04:11:10 19° 161° (SSE) 1,036 -2.0 -16.6°
Maximum altitude 04:12:00 21° 139° (SE) 973 -1.9 -16.5°
Drops below altitude 10° 04:14:35 10° 88° (E) 1,477 -0.3 -16.2°
Sets 04:16:59 0° 72° (ENE) 2,341 1.3 -15.9°
